sat.trackr.live / text

‹ back to catalog

STARLINK-34927

NORAD 65196 · 2025-175Y

PAYLOAD ACTIVE UNKNOWN

§ Identity

Operator
Country
US
Launch date
2025-08-14
Launch site
AFWTR
Launch vehicle
Mass (kg)
RCS (m²)

Purposes: comms

External: N2YO · Heavens-Above · Gunter

§ Orbital elements

Epoch: 2026-05-25T02:46:07.391712Z

Period
95.64 min
Inclination
97.4544°
Eccentricity
0.0002905
Mean motion
15.05641999 rev/d
Perigee alt
547.5 km
Apogee alt
551.5 km
Semi-major
6,927.7 km
B*
9.9556e-4
RAAN
17.6657°
Arg perigee
84.3470°
Mean anomaly
275.8088°
Rev number
4,414

§ Raw data

STARLINK-349271 65196U 25175Y   26145.11536333  .00014333  00000+0  99556-3 0  99902 65196  97.4544  17.6657 0002905  84.3470 275.8088 15.05641999 44146

JSON: /api/v1/satellites/65196 · /tle

For live sub-satellite position, see the globe view (requires WebGL).

§ Visibility from observer

Set your observer location to see the next 7 days of passes ≥ 10°. The values pass through the URL so the page stays shareable.

No JS? Fill the form by hand. The geolocation button needs JavaScript.